User: anonymous   Login
Location: Laterina
(43.5167°N, 11.7167°E)
Time: 12:08:40
(UTC+00:00)
Language:

Cosmos 1939 Rocket - Orbit

View from above orbital plane
View from above orbital plane
View from above satellite
View from above satellite

Ground track
Ground track

The orbit data is extracted from the following two-line orbital elements,

1 19046U 88032B   20330.93373493 +.00001160 +00000-0 +89842-4 0  9993
2 19046 097.3939 344.7772 0037473 017.1533 343.0950 15.02784581761212
Epoch (UTC): 25 November 2020 22:24:34
Eccentricity: 0.0037473
inclination: 97.3939°
perigee height: 532 km
apogee height: 584 km
right ascension of ascending node: 344.7772°
argument of perigee: 17.1533°
revolutions per day: 15.02784581
mean anomaly at epoch: 343.0950°
orbit number at epoch: 76121

The dashed part of the orbit path shows where the satellite is in the earth's shadow,  

DLR